[[{"header":{"parameterUnit":"m.s-1","parameterCategory":2,"la1":30.2991,"la2":30.254,"lo1":-89.0895,"lo2":-89.0444,"dy":0.0017,"dx":0.0017,"nx":28,"ny":28,"refTime":"2025-11-20T03:00:00:Z","depth":"0","parameterNumber":2,"parameterNumberName":"U-component_of_CURRENTS"},"data":[0,0,0,0,0,0,0,0,0,0,0,0,0,0,0,0,0,0,0,0,0,0,0,0,0,0,0,0,0,0,0,0,0,0,0,0,0,0,0,0,0,0,0,0,0,0,0,0,0,0,0,0,0,0,0,0,0,0,-0.3022,-0.3021,0,-0.2969,-0.2968,-0.2967,-0.292,-0.292,-0.292,-0.292,-0.2767,-0.2763,-0.276,0,0,0,0,0,0,0,0,0,0,0,0,0,-0.2929,-0.2931,-0.3022,-0.3021,-0.3021,-0.2969,-0.2968,-0.2967,-0.292,-0.292,-0.292,-0.292,-0.2769,-0.2764,-0.2759,0,0,0,0,0,0,0,0,0,0,0,0,0,-0.2928,-0.2932,-0.3022,-0.2995,-0.2992,-0.297,-0.2968,-0.2967,-0.292,-0.292,-0.292,-0.292,-0.277,-0.2764,-0.2759,-0.2727,0,0,-0.2741,-0.2738,0,0,0,0,0,0,0,0,-0.2929,-0.2931,-0.2999,-0.2997,-0.2994,-0.2955,-0.288,-0.2883,-0.292,-0.2943,-0.292,-0.292,-0.2824,-0.2814,-0.2799,-0.272,-0.2713,-0.274,-0.2736,-0.2734,-0.2732,0,0,0,0,0,0,0,-0.2929,-0.2932,-0.2996,-0.2999,-0.2996,-0.2934,-0.2934,-0.288,-0.288,-0.2941,-0.2939,-0.294,-0.2821,-0.2805,-0.2795,-0.2711,-0.274,-0.2735,-0.2731,-0.2729,-0.2649,-0.265,0,0,0,0,0,0,-0.2953,-0.2934,-0.2998,-0.2995,-0.2965,-0.2936,-0.2937,-0.2964,-0.2883,-0.2872,-0.294,-0.2938,-0.2815,-0.2802,-0.2789,-0.2806,-0.2734,-0.2728,-0.2725,-0.2647,-0.2649,-0.265,0,0,0,0,0,0,-0.2952,-0.2961,-0.3,-0.2964,-0.2966,-0.294,-0.297,-0.2963,-0.2955,-0.2884,-0.2871,-0.294,-0.2815,-0.2798,-0.2761,-0.2797,-0.2726,-0.272,-0.2646,-0.2648,-0.265,-0.28,0,0,0,0,0,0,-0.295,-0.2961,-0.2979,-0.2968,-0.2969,-0.3013,-0.297,-0.2963,-0.2958,-0.2954,-0.2879,-0.2864,-0.2813,-0.2771,-0.2756,-0.2788,-0.2716,-0.2644,-0.2647,-0.2649,-0.2793,-0.2807,-0.2819,0,0,0,0,0,-0.2947,-0.2984,-0.2981,-0.2988,-0.3,-0.3015,-0.301,-0.2985,-0.2958,-0.2971,-0.2918,-0.2867,-0.2777,-0.2767,-0.2749,-0.278,-0.2643,-0.2646,-0.2649,-0.2788,-0.2804,-0.2818,0,0,0,0,0,0,-0.2944,-0.2983,-0.2979,-0.3024,-0.3029,-0.3009,-0.3014,-0.2994,-0.2961,-0.2948,-0.2875,-0.2858,-0.2839,-0.2787,-0.2778,-0.2765,-0.2705,-0.2704,-0.2816,-0.2831,-0.2844,-0.2854,-0.2711,0,0,0,0,0,-0.2957,-0.2996,-0.3014,-0.3043,-0.3057,-0.3034,-0.3031,-0.3019,-0.2993,-0.2978,-0.2928,-0.2874,-0.2836,-0.2817,-0.2768,-0.2757,-0.2678,-0.2767,-0.278,-0.2792,-0.2788,-0.2738,-0.2746,-0.2661,-0.2661,-0.2661,0,0,-0.2959,-0.2984,-0.3003,-0.3044,-0.3042,-0.3072,-0.3032,-0.3043,-0.3059,-0.2964,-0.296,-0.2907,-0.284,-0.2834,-0.2822,-0.2797,-0.2766,-0.2796,-0.2806,-0.2796,-0.2742,-0.275,-0.2757,-0.2663,-0.2662,-0.2662,0,0,-0.2988,-0.3014,-0.3061,-0.3081,-0.3101,-0.3095,-0.3107,-0.3102,-0.3096,-0.3086,-0.3028,-0.3006,-0.2937,-0.2917,-0.2891,-0.2942,-0.283,-0.2924,-0.3003,-0.2956,-0.2962,-0.2967,-0.2844,-0.2837,-0.294,-0.294,-0.294,0,-0.2987,-0.3044,-0.307,-0.3119,-0.3131,-0.3115,-0.3153,-0.3157,-0.3134,-0.3128,-0.3104,-0.302,-0.2982,-0.2972,-0.3007,-0.2973,-0.2893,-0.2956,-0.2973,-0.2977,-0.2979,-0.2852,-0.2842,-0.2948,-0.2947,-0.2946,-0.2945,0,-0.3051,-0.3093,-0.312,-0.3181,-0.3208,-0.3228,-0.3254,-0.3264,-0.3244,-0.3231,-0.321,-0.3156,-0.3099,-0.3108,-0.3076,-0.3084,-0.2999,-0.2991,-0.2938,-0.2997,-0.2858,-0.2845,-0.2959,-0.2956,-0.2954,-0.2952,0,0,-0.3038,-0.3144,-0.3148,-0.3154,-0.3234,-0.3231,-0.3307,-0.3331,-0.3305,-0.3324,-0.3281,-0.3299,-0.3246,-0.3215,-0.3171,-0.3163,-0.3124,-0.3099,-0.3093,-0.2981,-0.295,-0.2897,-0.2876,-0.3118,-0.3117,-0.3117,-0.2833,0,-0.306,-0.3127,-0.3203,-0.3235,-0.325,-0.3298,-0.3331,-0.3357,-0.3351,-0.3305,-0.3308,-0.3242,-0.3293,-0.3229,-0.325,-0.3117,-0.3101,-0.3196,-0.2905,-0.2894,-0.2847,-0.2865,-0.2768,-0.251,-0.282,-0.2817,-0.2816,0,-0.3078,-0.311,-0.3161,-0.319,-0.3204,-0.3231,-0.323,-0.3266,-0.3273,-0.326,-0.3268,-0.322,-0.3206,-0.322,-0.3112,-0.316,-0.3083,-0.3013,-0.3,-0.289,-0.282,-0.2507,-0.2473,-0.2467,-0.2794,-0.2796,-0.2798,0,-0.2961,-0.3058,-0.3071,-0.3093,-0.3156,-0.3175,-0.32,-0.3234,-0.3211,-0.3211,-0.3145,-0.3154,-0.3065,-0.3038,-0.2969,-0.3005,-0.2807,-0.2819,-0.2703,-0.2692,-0.2522,-0.25,-0.2454,-0.2762,-0.2762,-0.2763,-0.2764,0,-0.2916,-0.2914,-0.3,-0.2988,-0.2946,-0.3058,-0.3004,-0.3046,-0.3049,-0.2996,-0.3082,-0.3008,-0.302,-0.2932,-0.2903,-0.275,-0.2756,-0.2698,-0.2633,-0.2567,-0.2554,-0.247,-0.2508,-0.2752,-0.2755,-0.2757,-0.2759,0,-0.2779,-0.2853,-0.2831,-0.2884,-0.2881,-0.2845,-0.2858,-0.2817,-0.2868,-0.2792,-0.2784,-0.2822,-0.2741,-0.2729,-0.2617,-0.2605,-0.2447,-0.2457,-0.2354,-0.2286,-0.2186,-0.2235,-0.2079,-0.2017,-0.2231,-0.2229,-0.2226,0,-0.2719,-0.2697,-0.2695,-0.2649,-0.2668,-0.2639,-0.2607,-0.269,-0.2674,-0.2683,-0.2626,-0.2568,-0.2524,-0.2349,-0.2326,-0.2215,-0.2291,-0.2073,-0.2176,-0.2161,-0.2166,-0.2217,-0.2181,-0.1962,-0.1958,-0.1955,-0.1952,0,-0.256,-0.2557,-0.2519,-0.2431,-0.2387,-0.2352,-0.2347,-0.2304,-0.2413,-0.2376,-0.2353,-0.2321,-0.2224,-0.2115,-0.2028,-0.1977,-0.2034,-0.1997,-0.2009,-0.1986,-0.2003,-0.1917,-0.2126,-0.1921,-0.1924,-0.1926,-0.1928,-0.1929,-0.24,-0.232,-0.226,-0.2168,-0.2129,-0.2089,-0.2016,-0.206,-0.202,-0.2007,-0.2083,-0.2028,-0.1993,-0.1867,-0.1803,-0.1695,-0.1781,-0.167,-0.1723,-0.177,-0.1766,-0.1898,-0.1637,-0.1639,-0.164,-0.1641,-0.1642,0,-0.2188,-0.2107,-0.2004,-0.1901,-0.1821,-0.1876,-0.1844,-0.1789,-0.1736,-0.1789,-0.1775,-0.1755,-0.1644,-0.1629,-0.1542,-0.1465,-0.1442,-0.1443,-0.1496,-0.1467,-0.1568,-0.162,-0.1312,-0.1312,-0.1312,-0.1312,-0.1312,-0.1312,-0.2054,-0.1883,-0.1833,-0.1626,-0.1578,-0.1456,-0.1424,-0.139,-0.1405,-0.1375,-0.1409,-0.144,-0.147,-0.1603,-0.1489,-0.1399,-0.1386,-0.133,-0.1372,-0.1477,-0.1504,-0.153,-0.1589,-0.128,-0.128,-0.1205,-0.1204,-0.1204]},{"header":{"parameterUnit":"m.s-1","parameterCategory":2,"la1":30.2991,"la2":30.254,"lo1":-89.0895,"lo2":-89.0444,"dy":0.0017,"dx":0.0017,"nx":28,"ny":28,"refTime":"2025-11-20T03:00:00:Z","depth":"0","parameterNumber":3,"parameterNumberName":"V-component_of_CURRENTS"},"data":[0,0,0,0,0,0,0,0,0,0,0,0,0,0,0,0,0,0,0,0,0,0,0,0,0,0,0,0,0,0,0,0,0,0,0,0,0,0,0,0,0,0,0,0,0,0,0,0,0,0,0,0,0,0,0,0,0,0,0.046,0.0462,0,0.0621,0.0623,0.0624,0.0675,0.0675,0.0674,0.0674,0.0804,0.0808,0.0812,0,0,0,0,0,0,0,0,0,0,0,0,0,0.0252,0.0254,0.046,0.0462,0.0465,0.0621,0.0623,0.0625,0.0675,0.0675,0.0674,0.0674,0.0803,0.0808,0.0812,0,0,0,0,0,0,0,0,0,0,0,0,0,0.0367,0.0255,0.0459,0.0511,0.0518,0.0621,0.0623,0.0625,0.0675,0.0675,0.0674,0.0673,0.0801,0.0807,0.0813,0.0862,0,0,0.0831,0.0833,0,0,0,0,0,0,0,0,0.036,0.0374,0.0501,0.0508,0.0515,0.063,0.0598,0.0704,0.0676,0.0612,0.0674,0.0673,0.0746,0.0756,0.0784,0.0868,0.0874,0.0831,0.0835,0.0837,0.0839,0,0,0,0,0,0,0,0.0352,0.0368,0.052,0.0504,0.0512,0.0546,0.056,0.0618,0.0677,0.0617,0.0622,0.0646,0.0749,0.0778,0.0787,0.0876,0.0831,0.0836,0.084,0.0842,0.1,0.1,0,0,0,0,0,0,0.0337,0.036,0.0515,0.0526,0.0438,0.055,0.0566,0.0591,0.0678,0.0692,0.0646,0.0648,0.0768,0.078,0.0792,0.0812,0.0837,0.0843,0.0846,0.0999,0.1,0.1001,0,0,0,0,0,0,0.0332,0.035,0.0509,0.0449,0.0472,0.0554,0.0582,0.0595,0.0621,0.0701,0.0713,0.0659,0.0768,0.0784,0.084,0.0819,0.0845,0.0851,0.0998,0.0999,0.1,0.088,0,0,0,0,0,0,0.0326,0.0347,0.0352,0.0448,0.0475,0.0555,0.0583,0.0599,0.0639,0.0642,0.0716,0.0727,0.0769,0.0831,0.0846,0.0827,0.0855,0.0997,0.0999,0.1,0.0883,0.0876,0.0871,0,0,0,0,0,0.0318,0.0334,0.0351,0.0369,0.0481,0.0556,0.0572,0.0626,0.0639,0.0647,0.0701,0.0725,0.0849,0.0836,0.0854,0.0836,0.0997,0.0998,0.1,0.0885,0.0878,0.0871,0,0,0,0,0,0,0.0249,0.0344,0.0364,0.0408,0.0467,0.0565,0.0585,0.0622,0.0674,0.0673,0.074,0.0756,0.0798,0.0846,0.083,0.089,0.0925,0.093,0.0832,0.0826,0.082,0.0794,0.086,0,0,0,0,0,0.0236,0.0267,0.0359,0.0388,0.0418,0.0498,0.0533,0.0569,0.0635,0.0656,0.071,0.0769,0.0822,0.0844,0.0903,0.0937,0.0953,0.094,0.0934,0.0928,0.0922,0.0931,0.0923,0.1006,0.1006,0.1006,0,0,0.0219,0.0273,0.0291,0.0374,0.0426,0.0452,0.0516,0.0565,0.0577,0.0663,0.0692,0.0756,0.0832,0.0866,0.0888,0.0897,0.091,0.093,0.0924,0.0922,0.0931,0.0923,0.0915,0.1007,0.1007,0.1006,0,0,0.0184,0.0246,0.0248,0.0294,0.0365,0.042,0.0429,0.0518,0.0547,0.0595,0.0654,0.0706,0.079,0.0831,0.0864,0.0869,0.0885,0.0887,0.0823,0.083,0.0822,0.0816,0.0796,0.0789,0.0873,0.0873,0.0873,0,0.0154,0.0165,0.0259,0.0267,0.0291,0.0395,0.0388,0.0446,0.0535,0.0554,0.0586,0.0703,0.077,0.0802,0.0807,0.085,0.0848,0.0833,0.0817,0.0811,0.0806,0.0788,0.0781,0.0867,0.0868,0.0868,0.0869,0,0.0113,0.0116,0.0126,0.0163,0.0208,0.0224,0.0314,0.0352,0.0405,0.0458,0.0512,0.0608,0.0669,0.0702,0.0759,0.076,0.0766,0.0808,0.0818,0.0789,0.0773,0.0768,0.0859,0.0861,0.0863,0.0864,0,0,0.0047,0.0082,0.0079,0.0056,0.0145,0.0171,0.021,0.0263,0.0268,0.0362,0.0363,0.0478,0.0533,0.0578,0.065,0.0669,0.0637,0.0715,0.0718,0.0665,0.0621,0.0703,0.0706,0.0663,0.0663,0.0662,0.0611,0,-0.0032,-0.008,-0.0017,-0.0058,-0.0078,0.0031,0.0052,0.0122,0.0195,0.023,0.0337,0.0378,0.0483,0.0502,0.054,0.062,0.0624,0.0646,0.0685,0.0685,0.0738,0.0704,0.0768,0.0737,0.0607,0.0606,0.0605,0,-0.0115,-0.0137,-0.0202,-0.0204,-0.0197,-0.0189,-0.0142,-0.0106,-0.0003,0.005,0.0124,0.0218,0.0281,0.0371,0.0459,0.0462,0.053,0.0591,0.0591,0.071,0.0761,0.0756,0.0733,0.0901,0.0598,0.0599,0.0599,0,-0.0254,-0.0275,-0.0345,-0.034,-0.0303,-0.0304,-0.027,-0.0172,-0.0147,-0.0066,-0.0047,0.0054,0.0099,0.0196,0.0376,0.0391,0.0469,0.0499,0.0629,0.0634,0.0722,0.0737,0.0847,0.0543,0.0544,0.0544,0.0544,0,-0.0381,-0.0435,-0.0421,-0.0458,-0.0513,-0.0436,-0.046,-0.0396,-0.0326,-0.0302,-0.0159,-0.0119,0.006,0.0163,0.0301,0.046,0.0407,0.0607,0.0631,0.0683,0.0695,0.0876,0.0945,0.0542,0.0542,0.0543,0.0543,0,-0.0518,-0.0519,-0.0589,-0.0585,-0.0582,-0.0613,-0.0569,-0.0573,-0.0498,-0.0465,-0.0446,-0.028,-0.0131,0.0062,0.0228,0.0365,0.0616,0.0579,0.0626,0.0658,0.093,0.0989,0.1108,0.1213,0.0664,0.0666,0.0667,0,-0.0595,-0.0651,-0.0682,-0.0707,-0.0704,-0.0728,-0.0728,-0.0662,-0.0645,-0.054,-0.0531,-0.0381,-0.022,0.0052,0.032,0.0544,0.0697,0.0722,0.0785,0.0951,0.1033,0.1074,0.1156,0.0828,0.0831,0.0833,0.0835,0,-0.071,-0.0716,-0.0757,-0.0817,-0.084,-0.0866,-0.086,-0.0876,-0.0778,-0.073,-0.0612,-0.0485,-0.017,0.0156,0.0475,0.0627,0.0865,0.0775,0.0935,0.1165,0.1226,0.1337,0.0833,0.0855,0.0853,0.0851,0.085,0.0849,-0.0757,-0.0811,-0.0851,-0.09,-0.0935,-0.0963,-0.0973,-0.0944,-0.0907,-0.0777,-0.066,-0.0405,0.0043,0.0524,0.0694,0.109,0.1042,0.1213,0.126,0.1277,0.1433,0.0973,0.1046,0.1045,0.1044,0.1043,0.1043,0,-0.0792,-0.085,-0.0918,-0.0969,-0.1012,-0.1009,-0.1018,-0.0984,-0.092,-0.0751,-0.0587,-0.0042,0.0406,0.082,0.1349,0.1564,0.1614,0.167,0.1742,0.1796,0.1378,0.1446,0.1625,0.1625,0.1625,0.1624,0.1624,0.1624,-0.0803,-0.0883,-0.0925,-0.1001,-0.1036,-0.1055,-0.1051,-0.0977,-0.0839,-0.0508,-0.0177,0.0099,0.0688,0.1468,0.1958,0.2008,0.2196,0.218,0.2268,0.199,0.1951,0.1914,0.1998,0.2289,0.229,0.2694,0.2698,0.2701]}],[{"header":{"parameterUnit":"m.s-1","parameterCategory":2,"la1":30.2991,"la2":30.254,"lo1":-89.0895,"lo2":-89.0444,"dy":0.0017,"dx":0.0017,"nx":28,"ny":28,"refTime":"2025-11-20T03:00:00:Z","depth":"2","parameterNumber":2,"parameterNumberName":"U-component_of_CURRENTS"},"data":[0,0,0,0,0,0,0,0,0,0,0,0,0,0,0,0,0,0,0,0,0,0,0,0,0,0,0,0,0,0,0,0,0,0,0,0,0,0,0,0,0,0,0,0,0,0,0,0,0,0,0,0,0,0,0,0,0,0,-0.211,-0.211,0,-0.2151,-0.2151,-0.2152,-0.2146,-0.2145,-0.2145,-0.2144,-0.2334,-0.234,-0.2345,0,0,0,0,0,0,0,0,0,0,0,0,0,-0.2039,-0.204,-0.211,-0.2111,-0.2111,-0.2151,-0.2151,-0.2152,-0.2146,-0.2145,-0.2145,-0.2144,-0.2333,-0.2339,-0.2346,0,0,0,0,0,0,0,0,0,0,0,0,0,-0.2073,-0.2041,-0.211,-0.2113,-0.2114,-0.2151,-0.2151,-0.2152,-0.2146,-0.2145,-0.2144,-0.2143,-0.233,-0.2339,-0.2347,-0.2419,0,0,-0.2373,-0.2377,0,0,0,0,0,0,0,0,-0.2071,-0.2076,-0.2112,-0.2113,-0.2114,-0.2143,-0.2196,-0.2249,-0.2147,-0.2134,-0.2144,-0.2143,-0.2285,-0.2297,-0.2304,-0.2428,-0.2436,-0.2374,-0.2379,-0.2382,-0.2385,0,0,0,0,0,0,0,-0.2069,-0.2074,-0.2126,-0.2113,-0.2114,-0.2117,-0.2121,-0.2205,-0.2217,-0.2135,-0.2134,-0.214,-0.2286,-0.2296,-0.2309,-0.2439,-0.2373,-0.2381,-0.2386,-0.239,-0.2625,-0.2626,0,0,0,0,0,0,-0.2066,-0.2072,-0.2124,-0.2127,-0.209,-0.2119,-0.2123,-0.2134,-0.2213,-0.2223,-0.2141,-0.214,-0.2282,-0.2299,-0.2316,-0.2427,-0.2382,-0.239,-0.2395,-0.2623,-0.2625,-0.2626,0,0,0,0,0,0,-0.2064,-0.207,-0.2123,-0.21,-0.2107,-0.2121,-0.2134,-0.2135,-0.2147,-0.2216,-0.2228,-0.215,-0.2282,-0.2304,-0.24,-0.2434,-0.2394,-0.2402,-0.2622,-0.2624,-0.2625,-0.2637,0,0,0,0,0,0,-0.2062,-0.207,-0.208,-0.21,-0.2108,-0.2122,-0.2135,-0.2137,-0.2152,-0.215,-0.2229,-0.2244,-0.2283,-0.2387,-0.2408,-0.2445,-0.2409,-0.2621,-0.2623,-0.2625,-0.2635,-0.2639,-0.2642,0,0,0,0,0,-0.2059,-0.2076,-0.2081,-0.2087,-0.2122,-0.2121,-0.2125,-0.2132,-0.2153,-0.2142,-0.222,-0.2242,-0.2414,-0.2396,-0.242,-0.246,-0.262,-0.2622,-0.2625,-0.2634,-0.2638,-0.2642,0,0,0,0,0,0,-0.2056,-0.2078,-0.2083,-0.2108,-0.2103,-0.212,-0.213,-0.2139,-0.2189,-0.2221,-0.2275,-0.2296,-0.2403,-0.2424,-0.2401,-0.253,-0.2515,-0.2522,-0.2513,-0.2518,-0.2522,-0.2472,-0.2416,0,0,0,0,0,-0.206,-0.2077,-0.2085,-0.2103,-0.2107,-0.2123,-0.2131,-0.2143,-0.2188,-0.2207,-0.227,-0.2347,-0.2433,-0.2466,-0.2549,-0.262,-0.2589,-0.2654,-0.2658,-0.266,-0.2635,-0.2621,-0.262,-0.2635,-0.2634,-0.2634,0,0,-0.2056,-0.2081,-0.2084,-0.2102,-0.2114,-0.2135,-0.2124,-0.2149,-0.2183,-0.2231,-0.2318,-0.2388,-0.2462,-0.255,-0.2594,-0.2567,-0.264,-0.2664,-0.2666,-0.2638,-0.2624,-0.2622,-0.262,-0.2636,-0.2636,-0.2636,0,0,-0.2071,-0.2088,-0.2105,-0.211,-0.2137,-0.2154,-0.216,-0.2194,-0.2217,-0.23,-0.2359,-0.2428,-0.255,-0.2592,-0.2634,-0.2702,-0.2682,-0.2736,-0.2694,-0.2682,-0.268,-0.2677,-0.2625,-0.2618,-0.2709,-0.2709,-0.2709,0,-0.2075,-0.2099,-0.2104,-0.2131,-0.2145,-0.2165,-0.2188,-0.2221,-0.2287,-0.2302,-0.233,-0.2489,-0.2565,-0.2641,-0.2663,-0.2711,-0.2678,-0.2675,-0.2683,-0.268,-0.2677,-0.2625,-0.2617,-0.271,-0.271,-0.271,-0.271,0,-0.2081,-0.2119,-0.2133,-0.2177,-0.219,-0.2213,-0.2254,-0.2294,-0.2342,-0.2355,-0.2442,-0.2533,-0.2601,-0.2644,-0.2684,-0.271,-0.2685,-0.2711,-0.2664,-0.2676,-0.2621,-0.2612,-0.2711,-0.2711,-0.2711,-0.271,0,0,-0.2026,-0.2124,-0.2116,-0.2162,-0.2219,-0.2231,-0.2302,-0.2327,-0.2357,-0.2419,-0.244,-0.2573,-0.2583,-0.2629,-0.2685,-0.2661,-0.2635,-0.2664,-0.2663,-0.2596,-0.2566,-0.2507,-0.2491,-0.2656,-0.2655,-0.2654,-0.2529,0,-0.2023,-0.2092,-0.2131,-0.2194,-0.2237,-0.2284,-0.2336,-0.2372,-0.2407,-0.2439,-0.2484,-0.2546,-0.2589,-0.2631,-0.2622,-0.2657,-0.2613,-0.2663,-0.2577,-0.2573,-0.2507,-0.2481,-0.2318,-0.2189,-0.252,-0.2519,-0.2518,0,-0.2003,-0.2051,-0.2117,-0.2229,-0.2242,-0.2282,-0.2341,-0.239,-0.2425,-0.2449,-0.2476,-0.2514,-0.2538,-0.257,-0.2557,-0.2584,-0.2565,-0.2555,-0.2551,-0.2479,-0.2498,-0.2236,-0.216,-0.2503,-0.2504,-0.2505,-0.2506,0,-0.1956,-0.2049,-0.2108,-0.2135,-0.2246,-0.2278,-0.2327,-0.2372,-0.2397,-0.2433,-0.2441,-0.2473,-0.2504,-0.2485,-0.25,-0.252,-0.2446,-0.2481,-0.2389,-0.2383,-0.2215,-0.2197,-0.2425,-0.2426,-0.2426,-0.2426,-0.2427,0,-0.1952,-0.1984,-0.209,-0.2114,-0.2155,-0.2247,-0.2281,-0.233,-0.2378,-0.2379,-0.2434,-0.2445,-0.2482,-0.2466,-0.2459,-0.239,-0.2417,-0.2352,-0.2344,-0.2216,-0.22,-0.246,-0.2466,-0.2421,-0.2422,-0.2423,-0.2424,0,-0.1897,-0.1975,-0.2035,-0.2127,-0.2151,-0.2169,-0.2243,-0.226,-0.2322,-0.2332,-0.2342,-0.24,-0.2377,-0.2382,-0.2352,-0.2332,-0.2279,-0.2244,-0.2074,-0.2049,-0.2221,-0.223,-0.2101,-0.2098,-0.2095,-0.2093,-0.2091,0,-0.1885,-0.1916,-0.2002,-0.2011,-0.2046,-0.2087,-0.2114,-0.2206,-0.2222,-0.2295,-0.229,-0.2295,-0.2269,-0.2198,-0.2156,-0.2076,-0.2178,-0.1892,-0.1912,-0.2181,-0.2186,-0.2199,-0.2211,-0.1683,-0.1678,-0.1674,-0.167,0,-0.1815,-0.1847,-0.188,-0.1907,-0.1933,-0.1959,-0.2009,-0.2016,-0.2118,-0.2131,-0.2141,-0.2125,-0.2083,-0.1943,-0.1873,-0.182,-0.1897,-0.1805,-0.2108,-0.1814,-0.1783,-0.1791,-0.1816,-0.1633,-0.1637,-0.164,-0.1642,-0.1643,-0.1729,-0.1723,-0.1771,-0.1777,-0.1804,-0.1806,-0.1784,-0.1845,-0.185,-0.1854,-0.1938,-0.1865,-0.1859,-0.166,-0.1573,-0.1513,-0.1648,-0.1584,-0.1598,-0.1616,-0.1613,-0.1582,-0.1391,-0.1393,-0.1395,-0.1396,-0.1398,0,-0.1609,-0.162,-0.1632,-0.1639,-0.1613,-0.1674,-0.1689,-0.1645,-0.1603,-0.164,-0.1625,-0.1459,-0.1361,-0.1361,-0.1206,-0.1179,-0.1177,-0.1135,-0.1135,-0.1172,-0.1205,-0.1183,-0.0845,-0.0843,-0.0842,-0.084,0,0,-0.1538,-0.151,-0.1521,-0.1439,-0.144,-0.136,-0.1336,-0.1298,-0.129,-0.1219,-0.1189,-0.129,-0.1315,-0.1085,-0.1028,-0.0909,-0.103,-0.086,-0.1302,-0.1338,-0.1369,-0.1459,-0.1466,0,0,0,0,0]},{"header":{"parameterUnit":"m.s-1","parameterCategory":2,"la1":30.2991,"la2":30.254,"lo1":-89.0895,"lo2":-89.0444,"dy":0.0017,"dx":0.0017,"nx":28,"ny":28,"refTime":"2025-11-20T03:00:00:Z","depth":"2","parameterNumber":3,"parameterNumberName":"V-component_of_CURRENTS"},"data":[0,0,0,0,0,0,0,0,0,0,0,0,0,0,0,0,0,0,0,0,0,0,0,0,0,0,0,0,0,0,0,0,0,0,0,0,0,0,0,0,0,0,0,0,0,0,0,0,0,0,0,0,0,0,0,0,0,0,-0.0433,-0.0433,0,-0.0384,-0.0383,-0.0382,-0.0332,-0.0332,-0.0331,-0.0331,-0.0116,-0.011,-0.0105,0,0,0,0,0,0,0,0,0,0,0,0,0,-0.0411,-0.0412,-0.0433,-0.0433,-0.0432,-0.0384,-0.0383,-0.0382,-0.0332,-0.0332,-0.0331,-0.0331,-0.0117,-0.0111,-0.0104,0,0,0,0,0,0,0,0,0,0,0,0,0,-0.0393,-0.0412,-0.0433,-0.0405,-0.0402,-0.0384,-0.0383,-0.0381,-0.0332,-0.0332,-0.0331,-0.0331,-0.012,-0.0112,-0.0104,-0.0061,0,0,-0.0078,-0.0075,0,0,0,0,0,0,0,0,-0.0394,-0.0393,-0.0409,-0.0407,-0.0404,-0.0367,-0.0296,-0.0267,-0.0332,-0.0354,-0.0331,-0.0331,-0.0187,-0.0174,-0.0162,-0.0051,-0.0042,-0.0078,-0.0073,-0.0069,-0.0067,0,0,0,0,0,0,0,-0.0396,-0.0395,-0.0409,-0.0409,-0.0406,-0.037,-0.0367,-0.0291,-0.0267,-0.0352,-0.035,-0.0351,-0.0184,-0.017,-0.0156,-0.0039,-0.0078,-0.0071,-0.0066,-0.0062,0.0176,0.0177,0,0,0,0,0,0,-0.0415,-0.0397,-0.0411,-0.0408,-0.0403,-0.0372,-0.0368,-0.0376,-0.0272,-0.0258,-0.0352,-0.0349,-0.0184,-0.0166,-0.0148,-0.0057,-0.0069,-0.0062,-0.0057,0.0175,0.0176,0.0178,0,0,0,0,0,0,-0.0415,-0.0417,-0.0413,-0.0404,-0.0401,-0.0373,-0.0382,-0.0375,-0.0361,-0.0274,-0.0256,-0.0345,-0.0183,-0.0159,-0.0071,-0.0049,-0.0058,-0.005,0.0173,0.0175,0.0177,0.0105,0,0,0,0,0,0,-0.0414,-0.0417,-0.0425,-0.0406,-0.0403,-0.0411,-0.0383,-0.0375,-0.0365,-0.0361,-0.0262,-0.0242,-0.0181,-0.0084,-0.0063,-0.0038,-0.0044,0.0171,0.0174,0.0176,0.0105,0.0104,0.0103,0,0,0,0,0,-0.0414,-0.0429,-0.0426,-0.0428,-0.0417,-0.0412,-0.0407,-0.0382,-0.0365,-0.0366,-0.0286,-0.0245,-0.0052,-0.0076,-0.0052,-0.0024,0.017,0.0173,0.0176,0.0106,0.0104,0.0103,0,0,0,0,0,0,-0.0423,-0.0425,-0.0421,-0.0436,-0.0431,-0.0406,-0.0403,-0.0387,-0.0329,-0.0315,-0.0228,-0.0202,-0.0107,-0.0058,-0.0087,0.0055,0.0067,0.0075,0.0005,0.0005,0.0004,-0.0054,-0.0037,0,0,0,0,0,-0.0432,-0.0444,-0.0439,-0.0452,-0.045,-0.0428,-0.0421,-0.0408,-0.036,-0.0336,-0.0263,-0.0173,-0.0076,-0.0034,0.0057,0.0123,0.0153,0.016,0.0158,0.0157,0.0129,0.0206,0.0208,0.0188,0.0188,0.0188,0,0,-0.0446,-0.0443,-0.0454,-0.0455,-0.0444,-0.0444,-0.0421,-0.0419,-0.0407,-0.0317,-0.026,-0.0166,-0.0054,0.0031,0.0076,0.0071,0.0178,0.0161,0.0158,0.013,0.021,0.0211,0.0212,0.019,0.019,0.019,0,0,-0.0471,-0.0471,-0.0488,-0.0484,-0.0479,-0.046,-0.0464,-0.0437,-0.0414,-0.0359,-0.0269,-0.0176,-0.0054,0.0031,0.0092,0.0137,0.0181,0.0174,0.0109,0.0185,0.0186,0.0188,0.0215,0.0219,0.0159,0.0159,0.0159,0,-0.0484,-0.0502,-0.0491,-0.0499,-0.0499,-0.0471,-0.0482,-0.0454,-0.0398,-0.0375,-0.035,-0.0151,-0.0055,0.0059,0.0073,0.0133,0.0159,0.0101,0.0179,0.0182,0.0184,0.0212,0.0218,0.0156,0.0156,0.0156,0.0157,0,-0.0527,-0.053,-0.0537,-0.0537,-0.0532,-0.0539,-0.0509,-0.0483,-0.0446,-0.0419,-0.0314,-0.0186,-0.0073,-0.0018,0.0038,0.0118,0.0125,0.0177,0.0169,0.0181,0.0211,0.0218,0.0151,0.0152,0.0153,0.0154,0,0,-0.0575,-0.0571,-0.0569,-0.057,-0.0554,-0.0554,-0.0528,-0.0502,-0.0478,-0.0415,-0.0371,-0.0215,-0.0161,-0.009,0.0013,0.006,0.0111,0.0102,0.0108,0.0102,0.0235,0.0264,0.0275,0.0171,0.0172,0.0173,0.0241,0,-0.0608,-0.063,-0.0615,-0.0623,-0.063,-0.0592,-0.0569,-0.0538,-0.049,-0.0435,-0.0331,-0.0237,-0.0182,-0.0111,-0.0055,0.0091,0.0128,0.0084,0.0246,0.025,0.0254,0.0285,0.026,0.0322,0.0249,0.025,0.0251,0,-0.0653,-0.0656,-0.0678,-0.0657,-0.0657,-0.0654,-0.061,-0.0586,-0.0512,-0.047,-0.0391,-0.0304,-0.0196,-0.0147,0.0029,-0.0006,0.0091,0.0175,0.0181,0.0232,0.0294,0.0306,0.0338,0.0263,0.0262,0.0261,0.0261,0,-0.0695,-0.0694,-0.071,-0.071,-0.0686,-0.068,-0.0661,-0.0605,-0.058,-0.0491,-0.0457,-0.0331,-0.0238,-0.0118,0.0048,0.0043,0.0221,0.0259,0.0362,0.0364,0.0386,0.0388,0.0362,0.0362,0.0361,0.0361,0.0361,0,-0.0736,-0.0743,-0.0732,-0.0743,-0.0751,-0.0721,-0.071,-0.067,-0.0607,-0.0579,-0.0478,-0.0409,-0.0227,-0.01,0.0028,0.0211,0.0218,0.034,0.0392,0.0361,0.036,0.0347,0.0344,0.0364,0.0363,0.0363,0.0362,0,-0.0777,-0.0772,-0.0786,-0.0774,-0.0774,-0.0781,-0.0761,-0.0746,-0.068,-0.0631,-0.0604,-0.046,-0.029,-0.012,0.0102,0.0206,0.0372,0.0435,0.0357,0.0399,0.0455,0.0448,0.0543,0.0545,0.0546,0.0548,0.0549,0,-0.0799,-0.0813,-0.082,-0.0836,-0.0836,-0.084,-0.0842,-0.0791,-0.0772,-0.0658,-0.0636,-0.0467,-0.0333,-0.0024,0.0194,0.0414,0.0423,0.0512,0.0514,0.0436,0.0477,0.0468,0.046,0.0506,0.0507,0.0507,0.0507,0,-0.0833,-0.0837,-0.085,-0.0888,-0.0906,-0.0917,-0.0915,-0.0912,-0.0838,-0.0774,-0.066,-0.0544,-0.0246,0.0008,0.0293,0.042,0.0472,0.053,0.0505,0.0465,0.0409,0.0446,0.0438,0.0512,0.0512,0.0511,0.0511,0.0511,-0.0852,-0.0874,-0.0897,-0.0931,-0.0959,-0.0983,-0.0986,-0.0962,-0.0917,-0.0802,-0.0689,-0.0484,-0.0246,0.0171,0.0367,0.0549,0.0548,0.0594,0.0589,0.0585,0.057,0.052,0.0638,0.0639,0.0639,0.0639,0.0639,0,-0.0866,-0.0898,-0.0938,-0.0976,-0.1014,-0.1016,-0.102,-0.0993,-0.0934,-0.0798,-0.0654,-0.0376,-0.0086,0.0159,0.0454,0.0625,0.0607,0.0647,0.0588,0.0583,0.0579,0.0561,0.0628,0.0629,0.0629,0.0629,0,0,-0.0876,-0.0917,-0.0939,-0.1005,-0.1037,-0.106,-0.1057,-0.0998,-0.0893,-0.0749,-0.0587,-0.0369,-0.0068,0.0135,0.0349,0.0499,0.0496,0.0512,0.0504,0.0405,0.0399,0.0534,0.05,0,0,0,0,0]}],[{"header":{"parameterUnit":"m.s-1","parameterCategory":2,"la1":30.2991,"la2":30.254,"lo1":-89.0895,"lo2":-89.0444,"dy":0.0017,"dx":0.0017,"nx":28,"ny":28,"refTime":"2025-11-20T03:00:00:Z","depth":"4","parameterNumber":2,"parameterNumberName":"U-component_of_CURRENTS"},"data":[0,0,0,0,0,0,0,0,0,0,0,0,0,0,0,0,0,0,0,0,0,0,0,0,0,0,0,0,0,0,0,0,0,0,0,0,0,0,0,0,0,0,0,0,0,0,0,0,0,0,0,0,0,0,0,0,0,0,-0.1276,-0.1276,0,-0.1308,-0.1309,-0.1309,-0.1325,-0.1325,-0.1325,-0.1325,-0.1352,-0.1352,-0.1353,0,0,0,0,0,0,0,0,0,0,0,0,0,-0.1233,-0.1234,-0.1276,-0.1276,-0.1277,-0.1308,-0.1309,-0.1309,-0.1325,-0.1325,-0.1325,-0.1325,-0.1352,-0.1352,-0.1353,0,0,0,0,0,0,0,0,0,0,0,0,0,-0.1256,-0.1234,-0.1276,-0.1289,-0.1291,-0.1308,-0.1309,-0.1309,-0.1325,-0.1325,-0.1325,-0.1325,-0.1351,-0.1352,-0.1353,-0.1356,0,0,-0.1356,-0.1356,0,0,0,0,0,0,0,0,-0.1255,-0.1257,-0.1287,-0.1288,-0.129,-0.1314,-0.1304,-0.1325,-0.1324,-0.131,-0.1325,-0.1325,-0.1339,-0.1341,-0.1345,-0.1357,-0.1358,-0.1356,-0.1357,-0.1357,-0.1357,0,0,0,0,0,0,0,-0.1253,-0.1256,-0.1287,-0.1287,-0.1289,-0.1296,-0.1299,-0.1308,-0.1322,-0.1312,-0.1313,-0.1319,-0.134,-0.1344,-0.1346,-0.1358,-0.1356,-0.1357,-0.1357,-0.1358,-0.1432,-0.1433,0,0,0,0,0,0,-0.1251,-0.1255,-0.1286,-0.1288,-0.1274,-0.1297,-0.13,-0.1305,-0.1322,-0.1326,-0.1319,-0.132,-0.1343,-0.1345,-0.1347,-0.1406,-0.1357,-0.1358,-0.1358,-0.143,-0.1432,-0.1434,0,0,0,0,0,0,-0.125,-0.1254,-0.1285,-0.1273,-0.1278,-0.1298,-0.1302,-0.1306,-0.1333,-0.1328,-0.1331,-0.1345,-0.1343,-0.1346,-0.1376,-0.1405,-0.1358,-0.1359,-0.1429,-0.1431,-0.1433,-0.1488,0,0,0,0,0,0,-0.1249,-0.1253,-0.1266,-0.1273,-0.1279,-0.131,-0.1303,-0.1306,-0.1335,-0.1337,-0.1352,-0.1353,-0.1343,-0.1375,-0.1377,-0.1405,-0.136,-0.1427,-0.143,-0.1432,-0.1484,-0.1492,-0.1498,0,0,0,0,0,-0.1247,-0.126,-0.1266,-0.1271,-0.1292,-0.1311,-0.1314,-0.1327,-0.1337,-0.1352,-0.1365,-0.1354,-0.1393,-0.1377,-0.1379,-0.1408,-0.1426,-0.1429,-0.1432,-0.1481,-0.149,-0.1498,0,0,0,0,0,0,-0.1246,-0.1263,-0.127,-0.1287,-0.1306,-0.1314,-0.1333,-0.1344,-0.1366,-0.1375,-0.1371,-0.1373,-0.1407,-0.1404,-0.1386,-0.1438,-0.1408,-0.1412,-0.1445,-0.1453,-0.146,-0.1454,-0.1361,0,0,0,0,0,-0.1252,-0.1269,-0.1284,-0.1301,-0.1313,-0.133,-0.1344,-0.1354,-0.137,-0.1382,-0.1393,-0.1407,-0.1419,-0.1434,-0.1439,-0.1472,-0.1469,-0.1493,-0.15,-0.1506,-0.1503,-0.1524,-0.1532,-0.1444,-0.1444,-0.1444,0,0,-0.1256,-0.1269,-0.1279,-0.1303,-0.1319,-0.134,-0.1339,-0.1368,-0.1389,-0.138,-0.1421,-0.1429,-0.1431,-0.1463,-0.1479,-0.1468,-0.1534,-0.151,-0.1515,-0.1509,-0.1528,-0.1536,-0.1544,-0.1446,-0.1446,-0.1446,0,0,-0.1263,-0.1286,-0.13,-0.1323,-0.1354,-0.1364,-0.1379,-0.1405,-0.1423,-0.1459,-0.1458,-0.1485,-0.151,-0.1516,-0.1521,-0.1572,-0.1564,-0.1582,-0.1619,-0.164,-0.1647,-0.1653,-0.1676,-0.1684,-0.1592,-0.1592,-0.1592,0,-0.1265,-0.129,-0.1308,-0.1331,-0.1358,-0.1379,-0.1405,-0.1424,-0.1457,-0.1477,-0.1481,-0.1528,-0.1531,-0.1566,-0.1584,-0.1586,-0.1599,-0.1587,-0.1648,-0.1654,-0.1659,-0.1681,-0.1689,-0.1595,-0.1595,-0.1595,-0.1594,0,-0.1278,-0.1312,-0.1327,-0.1363,-0.139,-0.1423,-0.145,-0.1481,-0.151,-0.1527,-0.1575,-0.1587,-0.1616,-0.1626,-0.1621,-0.1668,-0.1666,-0.1648,-0.1625,-0.1671,-0.1692,-0.1699,-0.16,-0.1598,-0.1598,-0.1597,0,0,-0.1242,-0.1321,-0.1329,-0.1366,-0.1418,-0.1442,-0.1482,-0.1523,-0.1562,-0.1592,-0.1645,-0.1665,-0.1681,-0.1688,-0.1695,-0.1715,-0.1769,-0.1707,-0.1706,-0.1726,-0.1827,-0.1677,-0.167,-0.1768,-0.1769,-0.177,-0.1832,0,-0.1249,-0.1312,-0.1344,-0.1408,-0.1446,-0.1487,-0.1525,-0.1566,-0.1607,-0.1662,-0.1681,-0.1728,-0.1703,-0.1737,-0.1752,-0.1769,-0.1788,-0.1754,-0.1781,-0.1782,-0.1639,-0.1672,-0.1774,-0.1837,-0.1838,-0.184,-0.184,0,-0.1245,-0.1295,-0.1365,-0.1454,-0.1473,-0.1514,-0.1594,-0.1629,-0.1694,-0.1729,-0.1773,-0.1793,-0.1839,-0.1811,-0.1851,-0.1836,-0.1835,-0.1835,-0.1838,-0.1677,-0.1644,-0.1777,-0.1853,-0.1852,-0.1851,-0.185,-0.1849,0,-0.1218,-0.1308,-0.1375,-0.1407,-0.1499,-0.1542,-0.1589,-0.1655,-0.1695,-0.1781,-0.1825,-0.1872,-0.1911,-0.1918,-0.1905,-0.1899,-0.1936,-0.1928,-0.1788,-0.1779,-0.1873,-0.1865,-0.1944,-0.1944,-0.1944,-0.1944,-0.1944,0,-0.1205,-0.1258,-0.138,-0.1415,-0.1493,-0.1556,-0.1633,-0.1681,-0.1763,-0.1803,-0.1864,-0.1895,-0.194,-0.1956,-0.1941,-0.1874,-0.1963,-0.1792,-0.1779,-0.1897,-0.1892,-0.1879,-0.187,-0.1946,-0.1945,-0.1945,-0.1945,0,-0.1151,-0.1236,-0.1318,-0.144,-0.1483,-0.1539,-0.165,-0.1691,-0.1779,-0.1841,-0.1871,-0.1938,-0.1944,-0.1956,-0.1973,-0.1901,-0.1867,-0.1816,-0.195,-0.1944,-0.1699,-0.1693,-0.1691,-0.1686,-0.1682,-0.1679,-0.1676,0,-0.1128,-0.1172,-0.1322,-0.1374,-0.1433,-0.153,-0.1579,-0.1685,-0.1721,-0.1833,-0.1844,-0.1897,-0.1915,-0.182,-0.1848,-0.1808,-0.1768,-0.1758,-0.1713,-0.1682,-0.1671,-0.1671,-0.1671,-0.1669,-0.1668,-0.1667,-0.1666,0,-0.1075,-0.1144,-0.1207,-0.1314,-0.1394,-0.1462,-0.1545,-0.1565,-0.1665,-0.1776,-0.1758,-0.1745,-0.1743,-0.1723,-0.1689,-0.1659,-0.1774,-0.1714,-0.1723,-0.1681,-0.1656,-0.1648,-0.1653,-0.1651,-0.1653,-0.1655,-0.1656,0,-0.103,-0.1065,-0.1158,-0.1236,-0.1323,-0.1349,-0.1415,-0.1448,-0.1496,-0.1617,-0.1608,-0.165,-0.1723,-0.1645,-0.162,-0.1568,-0.1544,-0.1496,-0.1515,-0.1532,-0.1442,-0.1385,-0.1283,0,0,0,0,0,-0.0975,-0.1001,-0.1069,-0.1142,-0.1214,-0.1256,-0.136,-0.1422,-0.1537,-0.1477,-0.1533,-0.1513,-0.1469,-0.1497,-0.1406,-0.1547,-0.1552,-0.1436,-0.1508,-0.1571,-0.1588,-0.1492,0,0,0,0,0,0,-0.0939,-0.0997,-0.1031,-0.1031,-0.1049,-0.1108,-0.1162,-0.1245,-0.1219,-0.134,-0.1317,-0.1413,-0.1385,-0.1481,-0.1368,-0.1376,-0.1389,-0.1474,-0.147,-0.1562,-0.1577,-0.159,-0.1498,0,0,0,0,0]},{"header":{"parameterUnit":"m.s-1","parameterCategory":2,"la1":30.2991,"la2":30.254,"lo1":-89.0895,"lo2":-89.0444,"dy":0.0017,"dx":0.0017,"nx":28,"ny":28,"refTime":"2025-11-20T03:00:00:Z","depth":"4","parameterNumber":3,"parameterNumberName":"V-component_of_CURRENTS"},"data":[0,0,0,0,0,0,0,0,0,0,0,0,0,0,0,0,0,0,0,0,0,0,0,0,0,0,0,0,0,0,0,0,0,0,0,0,0,0,0,0,0,0,0,0,0,0,0,0,0,0,0,0,0,0,0,0,0,0,-0.0361,-0.0361,0,-0.0333,-0.0333,-0.0333,-0.0312,-0.0311,-0.0311,-0.0311,-0.0251,-0.025,-0.0248,0,0,0,0,0,0,0,0,0,0,0,0,0,-0.0339,-0.034,-0.0361,-0.0361,-0.0361,-0.0333,-0.0333,-0.0333,-0.0312,-0.0311,-0.0311,-0.0311,-0.0252,-0.025,-0.0248,0,0,0,0,0,0,0,0,0,0,0,0,0,-0.0334,-0.034,-0.0361,-0.0347,-0.0345,-0.0333,-0.0333,-0.0332,-0.0312,-0.0311,-0.0311,-0.0311,-0.0252,-0.025,-0.0248,-0.024,0,0,-0.0241,-0.0241,0,0,0,0,0,0,0,0,-0.0334,-0.0335,-0.0349,-0.0348,-0.0346,-0.0326,-0.0303,-0.03,-0.0312,-0.0324,-0.0311,-0.0311,-0.0273,-0.0269,-0.0265,-0.0238,-0.0235,-0.0241,-0.024,-0.0239,-0.0238,0,0,0,0,0,0,0,-0.0335,-0.0335,-0.035,-0.0349,-0.0347,-0.0322,-0.0321,-0.0302,-0.03,-0.0323,-0.0322,-0.0319,-0.0272,-0.0267,-0.0264,-0.0234,-0.0241,-0.0239,-0.0238,-0.0237,-0.0205,-0.0206,0,0,0,0,0,0,-0.0342,-0.0336,-0.0351,-0.0349,-0.0339,-0.0323,-0.0322,-0.0332,-0.0301,-0.0296,-0.0319,-0.0318,-0.0271,-0.0266,-0.0261,-0.0259,-0.0239,-0.0237,-0.0236,-0.0205,-0.0206,-0.0206,0,0,0,0,0,0,-0.0342,-0.0344,-0.0352,-0.0341,-0.034,-0.0324,-0.0335,-0.0332,-0.033,-0.0298,-0.0293,-0.032,-0.0271,-0.0264,-0.0249,-0.0256,-0.0236,-0.0234,-0.0205,-0.0205,-0.0206,-0.0248,0,0,0,0,0,0,-0.0341,-0.0344,-0.0356,-0.0342,-0.0341,-0.0354,-0.0335,-0.0332,-0.0328,-0.0327,-0.0297,-0.0291,-0.027,-0.0253,-0.0247,-0.0253,-0.0233,-0.0204,-0.0205,-0.0206,-0.0247,-0.0251,-0.0254,0,0,0,0,0,-0.0341,-0.0357,-0.0357,-0.0359,-0.0358,-0.0354,-0.0352,-0.0338,-0.0329,-0.0334,-0.0312,-0.0292,-0.0254,-0.0252,-0.0245,-0.025,-0.0204,-0.0205,-0.0206,-0.0245,-0.025,-0.0254,0,0,0,0,0,0,-0.0354,-0.0357,-0.0356,-0.0374,-0.0369,-0.0351,-0.0353,-0.0343,-0.033,-0.0328,-0.0296,-0.0289,-0.0283,-0.026,-0.0258,-0.0244,-0.0226,-0.0226,-0.0259,-0.0263,-0.0266,-0.0269,-0.0231,0,0,0,0,0,-0.0364,-0.0379,-0.0373,-0.0388,-0.0386,-0.0371,-0.0368,-0.0361,-0.0346,-0.034,-0.0318,-0.0295,-0.0282,-0.0267,-0.0254,-0.024,-0.019,-0.024,-0.0244,-0.0247,-0.0245,-0.0174,-0.017,-0.0209,-0.0209,-0.0209,0,0,-0.0375,-0.0377,-0.0387,-0.0392,-0.0386,-0.0391,-0.0369,-0.037,-0.0373,-0.0335,-0.033,-0.0312,-0.0284,-0.0275,-0.0269,-0.0254,-0.0209,-0.0248,-0.0251,-0.0247,-0.0174,-0.017,-0.0167,-0.021,-0.021,-0.021,0,0,-0.0397,-0.0405,-0.0422,-0.0422,-0.042,-0.041,-0.0413,-0.0399,-0.0392,-0.0387,-0.0363,-0.0344,-0.0322,-0.0298,-0.0284,-0.0297,-0.0238,-0.0298,-0.0308,-0.0239,-0.0235,-0.023,-0.0155,-0.0144,-0.029,-0.029,-0.0291,0,-0.0409,-0.043,-0.0425,-0.0438,-0.044,-0.0421,-0.0434,-0.0426,-0.0409,-0.0399,-0.0394,-0.0349,-0.0331,-0.0303,-0.0315,-0.0305,-0.0252,-0.0294,-0.0242,-0.0237,-0.0231,-0.0156,-0.0142,-0.0293,-0.0292,-0.0292,-0.0292,0,-0.044,-0.0457,-0.0465,-0.0479,-0.0481,-0.0489,-0.0478,-0.0474,-0.0461,-0.0446,-0.0422,-0.0388,-0.0354,-0.0352,-0.0341,-0.03,-0.027,-0.0261,-0.0229,-0.023,-0.015,-0.0136,-0.0296,-0.0295,-0.0294,-0.0294,0,0,-0.0463,-0.0484,-0.0488,-0.0497,-0.0503,-0.0505,-0.0511,-0.0502,-0.049,-0.0472,-0.0442,-0.0427,-0.0395,-0.0377,-0.0348,-0.0295,-0.0221,-0.0268,-0.0263,-0.019,-0.0055,-0.0093,-0.008,-0.0198,-0.0196,-0.0194,-0.0012,0,-0.0486,-0.052,-0.0523,-0.0548,-0.056,-0.0549,-0.0551,-0.0541,-0.0518,-0.0484,-0.0441,-0.0409,-0.0407,-0.0381,-0.0331,-0.0249,-0.0186,-0.0271,-0.0069,-0.0062,-0.0092,-0.0066,-0.0188,-0.0001,0.0003,0.0005,0.0007,0,-0.0513,-0.053,-0.0564,-0.0575,-0.0578,-0.0592,-0.0579,-0.0575,-0.053,-0.0506,-0.0461,-0.0419,-0.0348,-0.0342,-0.0187,-0.0238,-0.0155,-0.0089,-0.008,-0.009,-0.0073,-0.0,0.0034,0.0032,0.003,0.0028,0.0027,0,-0.0527,-0.0555,-0.0583,-0.0592,-0.0603,-0.0612,-0.0612,-0.0586,-0.0574,-0.051,-0.0481,-0.0392,-0.0334,-0.0223,-0.0117,-0.0133,0.0063,0.0067,0.0119,0.0118,0.0117,0.0111,0.0185,0.0185,0.0184,0.0184,0.0183,0,-0.0547,-0.0569,-0.0595,-0.061,-0.0634,-0.0631,-0.0636,-0.062,-0.0579,-0.0556,-0.049,-0.044,-0.0302,-0.0188,-0.0088,0.0055,0.0095,0.0127,0.0163,0.0095,0.0084,0.0129,0.012,0.0191,0.0189,0.0188,0.0187,0,-0.0561,-0.0581,-0.0612,-0.0634,-0.0647,-0.0662,-0.0671,-0.0664,-0.062,-0.058,-0.0558,-0.0449,-0.0301,-0.0165,0.0033,0.0091,0.0233,0.0272,0.0199,0.0226,0.0245,0.0231,0.0376,0.0376,0.0376,0.0376,0.0377,0,-0.057,-0.0591,-0.0634,-0.0662,-0.0681,-0.0703,-0.0718,-0.0693,-0.068,-0.059,-0.0566,-0.0424,-0.0343,-0.0075,0.0052,0.0266,0.027,0.0352,0.0283,0.0244,0.0265,0.0251,0.0238,0.0377,0.0377,0.0377,0.0377,0,-0.0583,-0.0605,-0.0631,-0.0689,-0.0724,-0.0749,-0.0763,-0.0754,-0.0707,-0.0668,-0.055,-0.0419,-0.0253,-0.0074,0.0084,0.0224,0.0303,0.0354,0.0354,0.029,0.0247,0.0264,0.0251,0.0378,0.0377,0.0377,0.0377,0,-0.0589,-0.0616,-0.0657,-0.0704,-0.0755,-0.0781,-0.0785,-0.0752,-0.0724,-0.0622,-0.0583,-0.0406,-0.0296,-0.0094,0.005,0.0184,0.0211,0.024,0.0247,0.0247,0.0126,0.0047,0.016,0,0,0,0,0,-0.0585,-0.0621,-0.067,-0.0721,-0.0772,-0.0797,-0.0808,-0.0798,-0.0752,-0.0672,-0.0621,-0.0469,-0.024,-0.0138,-0.0006,0.0033,0.0215,0.0188,0.0248,0.0381,0.038,0.0252,0,0,0,0,0,0,-0.0586,-0.0637,-0.0665,-0.0724,-0.0761,-0.0807,-0.0816,-0.0787,-0.073,-0.0666,-0.0539,-0.0455,-0.0232,-0.0311,-0.0007,0.0033,0.0083,0.0303,0.0305,0.0381,0.0381,0.038,0.0248,0,0,0,0,0]}]]